Location: Pedholt
(56.0260°N, 10.2097°E)
Time: 20:31:46
(UTC+00:00)

Tiros 1 - Pass Details

Date: 10 August 2021
Orbit: 630 x 663 km, 48.4° (Epoch: 19 September)

Event Time Altitude Azimuth Distance (km) Brightness Sun altitude
Rises 16:50:44 0° 255° (WSW) 2,993 12.0 17.4°
Reaches altitude 10° 16:53:16 10° 246° (WSW) 2,077 11.1 17.0°
Maximum altitude 16:57:32 33° 183° (S) 1,104 8.5 16.4°
Drops below altitude 10° 17:01:48 10° 120° (ESE) 2,062 9.3 15.8°
Sets 17:04:17 0° 111° (ESE) 2,967 10.0 15.5°
